Weather History for KROC - November, 2012

Change the Weather History Date:

Tuesday, November 27, 2012

  Actual Average Record
Temperature  
Mean Temperature 34 °F 36 °F  
Max Temperature 38 °F 43 °F 71 °F (1887)
Min Temperature 29 °F 30 °F 9 °F (1936)
Degree Days  
Heating Degree Days 31 29  
Month to date heating degree days 672 647  
Since 1 July heating degree days 1198 1280  
Cooling Degree Days 0 0  
Month to date cooling degree days 0 0  
Year to date cooling degree days 802 539  
Moisture  
Dew Point 22 °F    
Average Humidity 66    
Maximum Humidity 75    
Minimum Humidity 56    
Precipitation  
Precipitation T in 0.10 in 1.02 in (1993)
Month to date precipitation 0.66 2.64  
Year to date precipitation 30.53 31.34  
Snow  
Snow T in 0.40 in 4.20 in (1940)
Month to date snowfall 0.3 6.0  
Since 1 July snowfall 0.3 6.1  
Since 1 September snowfall 0.3 6.1  
Snow Depth 0.00 in    
Sea Level Pressure  
Sea Level Pressure 30.27 in    
Wind  
Wind Speed 5 mph (WSW)    
Max Wind Speed 10 mph    
Max Gust Speed 14 mph    
Visibility 10 miles    
Events Snow    
T = Trace of Precipitation, MM = Missing Value Source: NWS Daily Summary

Daily Weather History Graph

Daily Weather History Graph

Search for Another Location

Airport or City:

Trip Planner

Search our weather history database for the weather conditions in past years. The results will help you decide how hot, cold, wet, or windy it might be!

Date:

Astronomy

Nov. 27, 2012 Rise Set
Actual Time 7:18 AM EST 4:38 PM EST
Civil Twilight 6:47 AM EST 5:09 PM EST
Nautical Twilight 6:11 AM EST 5:44 PM EST
Astronomical Twilight 5:37 AM EST 6:19 PM EST
Moon 4:08 PM EST (11/27) 6:21 AM EST (11/27)
Length of Visible Light 10h 22m
Length of Day
9h 19m
Waxing Gibbous, 99% of the Moon is Illuminated
Nov 27
Waxing Gibbous
Nov 28
Full
Dec 6
Last Quarter
Dec 13
New
Dec 20
First Quarter

Hourly Weather History & Observations

Time (EST) Temp. Windchill Dew Point Humidity Pressure Visibility Wind Dir Wind Speed Gust Speed Precip Events Conditions
12:54 AM 32.0 °F 25.6 °F 19.9 °F 61% 30.24 in 10.0 mi SW 6.9 mph - N/A   Mostly Cloudy
1:54 AM 30.9 °F 23.5 °F 19.9 °F 64% 30.25 in 10.0 mi SW 8.1 mph - N/A   Overcast
2:54 AM 30.0 °F 23.2 °F 19.9 °F 66% 30.26 in 10.0 mi SW 6.9 mph - N/A   Overcast
3:54 AM 28.9 °F 21.9 °F 21.0 °F 72% 30.25 in 10.0 mi SW 6.9 mph - N/A   Overcast
4:54 AM 30.0 °F 23.2 °F 21.0 °F 69% 30.25 in 10.0 mi SW 6.9 mph - N/A   Overcast
5:54 AM 30.0 °F 24.1 °F 21.0 °F 69% 30.25 in 10.0 mi SW 5.8 mph - N/A   Overcast
6:54 AM 30.0 °F 25.2 °F 21.0 °F 69% 30.26 in 10.0 mi SW 4.6 mph - N/A   Overcast
7:54 AM 30.0 °F 25.2 °F 21.9 °F 72% 30.29 in 10.0 mi SW 4.6 mph - N/A   Overcast
8:54 AM 32.0 °F 26.4 °F 21.9 °F 66% 30.30 in 10.0 mi WSW 5.8 mph - N/A   Overcast
9:54 AM 33.1 °F 26.1 °F 25.0 °F 72% 30.31 in 9.0 mi WSW 8.1 mph - 0.00 in   Overcast
10:54 AM 35.1 °F 31.0 °F 25.0 °F 67% 30.31 in 10.0 mi WSW 4.6 mph - N/A   Overcast
11:54 AM 37.0 °F 31.0 °F 24.1 °F 59% 30.29 in 10.0 mi WSW 8.1 mph - N/A   Overcast
12:54 PM 37.0 °F 31.6 °F 24.1 °F 59% 30.28 in 10.0 mi West 6.9 mph - N/A   Overcast
1:54 PM 36.0 °F - 26.1 °F 67% 30.27 in 10.0 mi Calm Calm - N/A   Overcast
2:15 PM 37.4 °F 32.1 °F 26.6 °F 65% 30.24 in 9.0 mi NNW 6.9 mph - 0.00 in Snow Light Snow
2:54 PM 35.6 °F 30.7 °F 26.6 °F 70% 30.25 in 10.0 mi NNW 5.8 mph - N/A Snow Light Snow
3:54 PM 35.1 °F 32.2 °F 24.1 °F 64% 30.28 in 10.0 mi NNW 3.5 mph - 0.00 in   Overcast
4:54 PM 35.1 °F - 24.1 °F 64% 30.28 in 10.0 mi Calm Calm - N/A   Overcast
5:54 PM 35.1 °F - 23.0 °F 61% 30.29 in 10.0 mi Calm Calm - N/A   Overcast
6:54 PM 34.0 °F 31.0 °F 21.0 °F 59% 30.29 in 10.0 mi SW 3.5 mph - N/A   Overcast
7:54 PM 34.0 °F 29.8 °F 19.9 °F 56% 30.29 in 10.0 mi SSW 4.6 mph - N/A   Overcast
8:54 PM 33.1 °F 27.7 °F 21.0 °F 61% 30.29 in 10.0 mi SW 5.8 mph - N/A   Overcast
9:54 PM 34.0 °F 28.8 °F 21.0 °F 59% 30.28 in 10.0 mi SSW 5.8 mph - N/A   Overcast
10:54 PM 33.1 °F 28.7 °F 21.0 °F 61% 30.26 in 10.0 mi SW 4.6 mph - N/A   Overcast
11:54 PM 33.1 °F 27.7 °F 21.0 °F 61% 30.26 in 10.0 mi SSW 5.8 mph - N/A   Overcast